Tracking 31027 objects as of 19-Jul-2025
HD Live streaming from Space Station
objects crossing your sky now

COSMOS 860 COOLANT

Track COSMOS 860 COOLANT now!
10-day predictions


NORAD ID: 29195
Int'l Code: 1976-103H
Perigee: 889.6 km
Apogee: 1,002.3 km
Inclination: 64.7 °
Period: 103.8 minutes
Semi major axis: 7316 km
RCS: 0.0092 m2 (small)
Launch date: October 17, 1976
Source: Commonwealth of Independent States (former USSR) (CIS)
Launch site: TYURATAM MISSILE AND SPACE COMPLEX (TTMTR)

Note: This is SATELLITE DEBRIS
Your satellite tracking list
BELINTERSAT 1
Track 1 satellite(s)




NASA's NSSDC Master Catalog

Two Line Element Set (TLE):
1 29195U 76103H   25197.63177380  .00000094  00000-0  15429-3 0  9999
2 29195  64.6968 166.0870 0077021 270.6675  88.5560 13.87110444593120
Source of the keplerian elements: AFSPC